Regional Weather Roundup
Issued by NWS

Home | Current Version | Previous Version | Text Only | Print | Product List | Glossary Off
Versions: 1 2 3 4 5 6 7 8 9 10 11 12 13 14 15 16 17 18 19 20 21 22 23 24 25 26 27 28 29 30 31 32 33 34 35 36 37 38 39 40 41 42 43 44 45 46 47 48 49 50

000
ASUS45 KPSR 010310
RWRAZ

ARIZONA HOURLY REGIONAL WEATHER ROUNDUP
NATIONAL WEATHER SERVICE PHOENIX AZ
800 PM MST SUN APR 30 2017

NOTE: FAIR INDICATES FEW OR NO CLOUDS BELOW 12,000 FEET WITH NO
SIGNIFICANT WEATHER AND/OR OBSTRUCTIONS TO VISIBILITY.

AZZ001>003-036-010400-
NORTHWEST ARIZONA

CITY           SKY/WX    TMP DP  RH WIND       PRES   REMARKS
BULLHEAD CITY  CLEAR     84  16   8 CALM      29.86S
KINGMAN        CLEAR     68  17  14 NW3       30.02R
$$

AZZ004>008-015-016-018-010400-
NORTH CENTRAL ARIZONA

CITY           SKY/WX    TMP DP  RH WIND       PRES   REMARKS
GRAND CANYON   CLEAR     42  16  34 CALM      30.15R
WILLIAMS       CLEAR     52  14  22 W6        30.15R
PRESCOTT       CLEAR     61  17  18 SW10      30.08R
FLAGSTAFF      CLEAR     54  13  19 W8        30.15R
PAYSON         CLEAR     61  14  16 W7        30.10R
PAGE           CLEAR     65  19  17 N3        30.00R
$$

AZZ009>014-017-010400-
NORTHEAST ARIZONA

CITY           SKY/WX    TMP DP  RH WIND       PRES   REMARKS
WINSLOW        CLEAR     56  10  16 CALM      30.04R
SAINT JOHNS    CLEAR     50  20  30 NW7       30.07R
WINDOW ROCK    CLEAR     48  17  29 N6        30.12R
SHOW LOW       CLEAR     54   9  16 S5        30.13R
$$

AZZ540-542>544-546-548-010400-
GREATER PHOENIX AREA

CITY           SKY/WX    TMP DP  RH WIND       PRES   REMARKS
PHOENIX        PTCLDY    81  14   8 SW5       29.88S
BUCKEYE        CLEAR     77  16  10 W9        29.90R
LUKE AFB       CLEAR     79  22  12 SW9       29.88R
DEER VALLEY    CLEAR     78  11   8 S6        29.90R
SCOTTSDALE     CLEAR     79  14   8 CALM      29.92R
CHANDLER       CLEAR     79  18  10 CALM      29.91R
$$

AZZ539-553-010400-
SOUTHWEST MARICOPA COUNTY AND PINAL COUNTY

CITY           SKY/WX    TMP DP  RH WIND       PRES   REMARKS
CASA GRANDE    CLEAR     75  12   9 W6        29.94R
GILA BEND      FAIR      80  10   7 W7        29.89R
$$

AZZ503-504-507>509-010400-
SOUTHEAST ARIZONA

CITY           SKY/WX    TMP DP  RH WIND       PRES   REMARKS
TUCSON         CLEAR     75   9   8 N5        30.00R
DAVIS-MONTHAN  CLEAR     71   9   9 N7        29.99R
RYAN FIELD     CLEAR     72  12  10 N6        29.99R
NOGALES        CLEAR     66   3   8 NE5       30.04R
SIERRA VISTA   CLEAR     62   5  10 W12       30.09R
DOUGLAS        CLEAR     61   9  12 N6        30.04R
SAFFORD        CLEAR     69  13  11 NW14      29.95R
$$

AZZ532-010400-
SOUTHWEST ARIZONA

CITY           SKY/WX    TMP DP  RH WIND       PRES   REMARKS
YUMA           CLEAR     83  24  11 W6        29.88S
$$

CAZ041-043-047-048-061-525>527-560>570-010400-
SOUTHERN CALIFORNIA

CITY           SKY/WX    TMP DP  RH WIND       PRES   REMARKS
DOWNTOWN L.A.  CLEAR     70  45  40 W6        29.98S
L.A. AIRPORT   CLEAR     63  51  65 W8        29.99S
SAN DIEGO      CLEAR     74  36  25 N8        30.01S
BURBANK        CLEAR     74  37  26 S5        29.98S
ONTARIO        PTCLDY    75  24  15 W8        29.99S
RIVERSIDE      CLEAR     75  23  14 W8        29.99S
PALM SPRINGS   CLEAR     88  19   8 VRB6      29.89R
EL CENTRO NAS  CLEAR     83  18   9 SE3       29.88S
IMPERIAL       CLEAR     81  28  14 CALM      29.86S
BLYTHE         CLEAR     82  22  11 SE6       29.87S
NEEDLES        CLEAR     85  11   6 SW7       29.87S
$$

NVZ020-UTZ003-010400-
SOUTHERN NEVADA-UTAH

CITY           SKY/WX    TMP DP  RH WIND       PRES   REMARKS
LAS VEGAS      CLEAR     81  13   7 S6        29.91S
SALT LAKE CITY MOCLDY    56  34  43 N3        30.04S
$$

NMZ009-TXZ055-010400-
NEW MEXICO-WEST TEXAS

CITY           SKY/WX    TMP DP  RH WIND       PRES   REMARKS
ALBUQUERQUE    PTCLDY    58  16  19 N14       30.01R
EL PASO        PTCLDY    72   6   7 W23       29.96R
$$


........................KEY........................
SKY/WX - SKY CONDITION/WEATHER
TMP    - TEMPERATURE IN FAHRENHEIT
DP     - DEW POINT IN FAHRENHEIT
RH     - RELATIVE HUMIDITY IN PERCENT
WIND   - DIRECTION AND SPEED IN MILES PER HOUR (MPH)
VRB    - VARIABLE WIND DIRECTION
PRES   - MEAN SEA LEVEL PRESSURE IN INCHES OF MERCURY
         F - FALLING PRESSURE   R - RISING PRESSURE
         S - STEADY PRESSURE
VSB    - VISIBILITY IN MILES
HX     - HEAT INDEX IN FAHRENHEIT
WCI    - WIND CHILL INDEX IN FAHRENHEIT
TC     - TEMPERATURE IN CELSIUS WHICH IS ALSO KNOWN AS
         TEMPERATURE IN CENTIGRADE
AFB    - AIR FORCE BASE
         LUKE AFB IS LUKE AIR FORCE BASE
         DAVIS-MONTHAN IS DAVIS-MONTHAN AIR FORCE BASE
NAS    - NAVAL AIR STATION
         EL CENTRO NAS IS EL CENTRO NAVAL AIR STATION
N/A    - NOT AVAILABLE




USA.gov is the U.S. government's official web portal to all federal, state and local government web resources and services.